Weather History for KBWG - April, 2014

Change the Weather History Date:

Monday, April 14, 2014

  Actual Average Record
Temperature  
Mean Temperature 58 °F 57 °F  
Max Temperature 74 °F 69 °F 88 °F (1919)
Min Temperature 42 °F 45 °F 22 °F (1950)
Degree Days  
Heating Degree Days 7 9  
Month to date heating degree days 86 147  
Since 1 July heating degree days 4348 3865  
Cooling Degree Days 0 1  
Month to date cooling degree days 12 13  
Year to date cooling degree days 12 18  
Growing Degree Days 8 (Base 50)    
Moisture  
Dew Point 51 °F    
Average Humidity 67    
Maximum Humidity 93    
Minimum Humidity 41    
Precipitation  
Precipitation 0.53 in 0.14 in 2.24 in (1893)
Month to date precipitation 2.89 1.89  
Year to date precipitation 13.79 13.87  
Snow  
Snow 0.00 in 0.00 in 0.50 in (1943)
Month to date snowfall 0.0 0.2  
Since 1 July snowfall 10.4 9.1  
Snow Depth 0.00 in    
Sea Level Pressure  
Sea Level Pressure 29.78 in    
Wind  
Wind Speed 13 mph (West)    
Max Wind Speed 26 mph    
Max Gust Speed 35 mph    
Visibility 8 miles    
Events Rain , Thunderstorm    
T = Trace of Precipitation, MM = Missing Value Source: NWS Daily Summary

Daily Weather History Graph

Daily Weather History Graph

Search for Another Location

Airport or City:

Trip Planner

Search our weather history database for the weather conditions in past years. The results will help you decide how hot, cold, wet, or windy it might be!

Date:

Astronomy

Apr. 14, 2014 Rise Set
Actual Time 6:12 AM CDT 7:19 PM CDT
Civil Twilight 5:46 AM CDT 7:46 PM CDT
Nautical Twilight 5:14 AM CDT 8:18 PM CDT
Astronomical Twilight 4:41 AM CDT 8:51 PM CDT
Moon 6:58 PM CDT (4/14) 5:43 AM CDT (4/14)
Length of Visible Light 14h 00m
Length of Day
13h 06m
Full, 100% of the Moon is Illuminated
Apr 14
Full
Apr 15
Full
Apr 22
Last Quarter
Apr 29
New
May 6
First Quarter

Hourly Weather History & Observations

Time (CDT) Temp. Windchill Dew Point Humidity Pressure Visibility Wind Dir Wind Speed Gust Speed Precip Events Conditions
12:53 AM 73.9 °F - 48.9 °F 41% 29.75 in 10.0 mi SSW 18.4 mph 25.3 mph N/A   Mostly Cloudy
1:53 AM 70.0 °F - 54.0 °F 57% 29.76 in 10.0 mi SSW 12.7 mph 23.0 mph 0.00 in Rain Light Rain
2:53 AM 66.9 °F - 57.9 °F 73% 29.77 in 8.0 mi SW 11.5 mph - 0.02 in Rain Rain
3:53 AM 62.1 °F - 59.0 °F 90% 29.73 in 10.0 mi East 3.5 mph - 0.02 in Rain Light Rain
4:53 AM 64.9 °F - 57.9 °F 78% 29.72 in 10.0 mi South 10.4 mph - 0.00 in   Overcast
7:23 AM 63.0 °F - 55.9 °F 78% 29.75 in 10.0 mi South 19.6 mph 27.6 mph 0.00 in   Overcast
7:53 AM 63.0 °F - 55.9 °F 78% 29.75 in 10.0 mi South 20.7 mph 33.4 mph 0.00 in   Overcast
8:53 AM 64.9 °F - 57.0 °F 75% 29.78 in 10.0 mi SSW 21.9 mph 28.8 mph N/A   Overcast
9:53 AM 66.9 °F - 55.9 °F 68% 29.79 in 10.0 mi SSW 17.3 mph 27.6 mph N/A   Overcast
10:22 AM 68.0 °F - 55.9 °F 65% 29.81 in 10.0 mi SW 21.9 mph 28.8 mph N/A   Mostly Cloudy
10:53 AM 68.0 °F - 55.9 °F 65% 29.80 in 10.0 mi SW 18.4 mph 25.3 mph N/A   Overcast
11:22 AM 69.1 °F - 55.9 °F 63% 29.81 in 10.0 mi SW 16.1 mph 27.6 mph N/A   Overcast
11:53 AM 68.0 °F - 55.9 °F 65% 29.80 in 10.0 mi SW 17.3 mph - N/A   Overcast
12:53 PM 70.0 °F - 55.9 °F 61% 29.78 in 10.0 mi SW 17.3 mph 23.0 mph N/A   Overcast
1:53 PM 71.1 °F - 55.9 °F 59% 29.75 in 10.0 mi SW 11.5 mph 20.7 mph N/A   Overcast
2:53 PM 71.1 °F - 55.9 °F 59% 29.72 in 10.0 mi SSW 11.5 mph - N/A   Overcast
4:53 PM 69.1 °F - 55.9 °F 63% 29.69 in 10.0 mi South 17.3 mph - N/A   Overcast
5:53 PM 69.1 °F - 55.0 °F 61% 29.69 in 10.0 mi South 13.8 mph - N/A   Overcast
6:21 PM 55.9 °F - 52.0 °F 87% 29.75 in 3.0 mi NW 18.4 mph 34.5 mph 0.04 in Rain Rain
6:28 PM 55.0 °F - 52.0 °F 89% 29.75 in 2.0 mi NW 16.1 mph 28.8 mph 0.06 in Rain Light Rain
6:34 PM 54.0 °F - 51.1 °F 90% 29.75 in 2.5 mi NW 11.5 mph 23.0 mph 0.07 in Rain Light Rain
6:37 PM 54.0 °F - 51.1 °F 90% 29.75 in 4.0 mi NNW 12.7 mph 23.0 mph 0.07 in Rain Light Rain
6:53 PM 53.1 °F - 50.0 °F 89% 29.75 in 8.0 mi Variable 6.9 mph 19.6 mph 0.08 in Rain , Thunderstorm Light Rain
7:05 PM 53.1 °F - 50.0 °F 89% 29.77 in 6.0 mi NW 10.4 mph - 0.02 in Rain Rain
7:13 PM 52.0 °F - 50.0 °F 93% 29.78 in 2.5 mi NW 10.4 mph 19.6 mph 0.08 in Rain Heavy Rain
7:23 PM 52.0 °F - 48.9 °F 89% 29.79 in 4.0 mi NW 9.2 mph - 0.11 in Rain Rain
7:53 PM 51.1 °F - 48.0 °F 89% 29.81 in 8.0 mi NW 13.8 mph - 0.15 in Rain Rain
8:17 PM 50.0 °F - 46.0 °F 86% 29.80 in 6.0 mi NW 8.1 mph 18.4 mph 0.04 in Rain Rain
8:25 PM 48.9 °F - 46.0 °F 90% 29.80 in 5.0 mi NW 9.2 mph 17.3 mph 0.07 in Rain Rain
8:32 PM 48.9 °F - 46.0 °F 90% 29.80 in 6.0 mi NW 10.4 mph - 0.08 in Rain Rain
8:53 PM 48.9 °F - 46.0 °F 90% 29.80 in 9.0 mi WNW 8.1 mph - 0.10 in Rain Light Rain
9:40 PM 48.0 °F - 45.0 °F 89% 29.85 in 10.0 mi NW 12.7 mph - 0.02 in Rain Light Rain
9:53 PM 46.9 °F - 43.0 °F 86% 29.84 in 10.0 mi NW 8.1 mph 19.6 mph 0.02 in Rain Light Rain
10:49 PM 44.6 °F 39.2 °F 41.0 °F 87% 29.87 in 10.0 mi NW 10.4 mph 17.3 mph 0.01 in Rain Light Rain
10:53 PM 45.0 °F 38.9 °F 41.0 °F 86% 29.86 in 10.0 mi NW 12.7 mph - 0.01 in Rain Light Rain
11:21 PM 44.1 °F 39.0 °F 41.0 °F 89% 29.88 in 7.0 mi NW 9.2 mph - 0.00 in   Overcast
11:53 PM 43.0 °F 36.8 °F 41.0 °F 93% 29.89 in 5.0 mi NW 11.5 mph 18.4 mph 0.03 in Rain Light Rain